Stündliche Wetter Czyzow

Heute, 30 Oktober, Freitag

Zeit Temperatur Niederschläge Wind Luftdruck Luftfeuchtigkeit
00:00 +6°C° 0 mm 4 m/S 745 mmHg 84%
01:00 +5°C° 0 mm 4 m/S 745 mmHg 85%
02:00 +5°C° 0 mm 4 m/S 745 mmHg 86%
03:00 +5°C° 0 mm 4 m/S 745 mmHg 86%
04:00 +5°C° 0 mm 4 m/S 745 mmHg 87%
05:00 +5°C° 0 mm 3 m/S 745 mmHg 88%
06:00 +5°C° 0 mm 3 m/S 745 mmHg 89%
07:00 +4°C° 0 mm 3 m/S 745 mmHg 87%
08:00 +5°C° 0 mm 3 m/S 746 mmHg 81%
09:00 +8°C° 0 mm 3 m/S 746 mmHg 75%
10:00 +9°C° 0 mm 3 m/S 746 mmHg 68%
11:00 +9°C° 0 mm 3 m/S 745 mmHg 66%
12:00 +10°C° 0 mm 3 m/S 745 mmHg 63%
13:00 +11°C° 0 mm 3 m/S 745 mmHg 61%
14:00 +10°C° 0.1 mm 3 m/S 744 mmHg 67%
15:00 +9°C° 0.1 mm 3 m/S 744 mmHg 74%
16:00 +9°C° 0.1 mm 3 m/S 744 mmHg 80%
17:00 +9°C° 0.5 mm 3 m/S 744 mmHg 84%
18:00 +9°C° 0.5 mm 3 m/S 743 mmHg 88%
19:00 +8°C° 0.5 mm 2 m/S 743 mmHg 92%
20:00 +8°C° 1 mm 2 m/S 744 mmHg 93%
21:00 +9°C° 1 mm 2 m/S 744 mmHg 94%
22:00 +9°C° 1 mm 2 m/S 744 mmHg 95%
23:00 +10°C° 0.3 mm 1 m/S 744 mmHg 95%

Morgen, 31 Oktober, Samstag

Zeit Temperatur Niederschläge Wind Luftdruck Luftfeuchtigkeit
00:00 +10°C° 0.3 mm 1 m/S 744 mmHg 95%
01:00 +10°C° 0.3 mm 1 m/S 744 mmHg 94%
02:00 +9°C° 0.1 mm 1 m/S 745 mmHg 94%
03:00 +9°C° 0.1 mm 1 m/S 745 mmHg 93%
04:00 +9°C° 0.1 mm 1 m/S 745 mmHg 93%
05:00 +9°C° 0 mm 1 m/S 746 mmHg 93%
06:00 +8°C° 0 mm 1 m/S 747 mmHg 94%
07:00 +8°C° 0 mm 1 m/S 747 mmHg 94%
08:00 +9°C° 0 mm 1 m/S 748 mmHg 88%
09:00 +10°C° 0 mm 1 m/S 748 mmHg 81%
10:00 +11°C° 0 mm 1 m/S 748 mmHg 74%
11:00 +12°C° 0 mm 1 m/S 748 mmHg 70%
12:00 +12°C° 0 mm 1 m/S 748 mmHg 65%
13:00 +12°C° 0 mm 0 m/S 748 mmHg 61%
14:00 +12°C° 0 mm 1 m/S 748 mmHg 63%
15:00 +12°C° 0 mm 1 m/S 748 mmHg 66%
16:00 +11°C° 0 mm 1 m/S 748 mmHg 69%
17:00 +10°C° 0 mm 1 m/S 748 mmHg 72%
18:00 +10°C° 0 mm 1 m/S 749 mmHg 74%
19:00 +9°C° 0 mm 1 m/S 749 mmHg 77%
20:00 +8°C° 0 mm 1 m/S 749 mmHg 79%
21:00 +7°C° 0 mm 2 m/S 749 mmHg 80%
22:00 +7°C° 0 mm 2 m/S 749 mmHg 82%
23:00 +6°C° 0 mm 2 m/S 749 mmHg 83%

übermorgen, 1 November, Sonntag

Zeit Temperatur Niederschläge Wind Luftdruck Luftfeuchtigkeit
00:00 +6°C° 0 mm 2 m/S 748 mmHg 84%
01:00 +6°C° 0 mm 2 m/S 748 mmHg 85%
02:00 +6°C° 0 mm 2 m/S 748 mmHg 86%
03:00 +5°C° 0 mm 2 m/S 748 mmHg 87%
04:00 +4°C° 0 mm 3 m/S 747 mmHg 87%
05:00 +4°C° 0 mm 3 m/S 747 mmHg 88%
06:00 +4°C° 0 mm 3 m/S 747 mmHg 88%
07:00 +4°C° 0 mm 3 m/S 747 mmHg 88%
08:00 +5°C° 0 mm 3 m/S 747 mmHg 82%
09:00 +6°C° 0 mm 4 m/S 747 mmHg 76%
10:00 +8°C° 0 mm 4 m/S 747 mmHg 70%
11:00 +10°C° 0 mm 4 m/S 746 mmHg 68%
12:00 +11°C° 0 mm 4 m/S 745 mmHg 66%
13:00 +12°C° 0 mm 4 m/S 745 mmHg 65%
14:00 +12°C° 0 mm 4 m/S 744 mmHg 69%
15:00 +11°C° 0 mm 4 m/S 744 mmHg 73%
16:00 +11°C° 0 mm 3 m/S 744 mmHg 77%
17:00 +10°C° 0 mm 4 m/S 743 mmHg 79%
18:00 +10°C° 0 mm 4 m/S 743 mmHg 81%
19:00 +10°C° 0 mm 4 m/S 743 mmHg 83%
20:00 +10°C° 0.2 mm 4 m/S 743 mmHg 85%
21:00 +10°C° 0.2 mm 4 m/S 743 mmHg 88%
22:00 +10°C° 0.2 mm 4 m/S 743 mmHg 90%
23:00 +10°C° 0.1 mm 4 m/S 742 mmHg 90%

2 November, Montag

Zeit Temperatur Niederschläge Wind Luftdruck Luftfeuchtigkeit
00:00 +10°C° 0.1 mm 4 m/S 742 mmHg 90%
01:00 +10°C° 0.1 mm 4 m/S 742 mmHg 90%
02:00 +10°C° 0.2 mm 4 m/S 742 mmHg 92%
03:00 +10°C° 0.2 mm 4 m/S 742 mmHg 93%
04:00 +10°C° 0.2 mm 3 m/S 742 mmHg 94%
05:00 +11°C° 0.1 mm 3 m/S 742 mmHg 94%
06:00 +11°C° 0.1 mm 3 m/S 742 mmHg 95%
07:00 +11°C° 0.1 mm 3 m/S 742 mmHg 95%
08:00 +12°C° 0 mm 3 m/S 742 mmHg 92%
09:00 +13°C° 0 mm 3 m/S 743 mmHg 90%
10:00 +13°C° 0 mm 3 m/S 743 mmHg 87%
11:00 +13°C° 0 mm 3 m/S 743 mmHg 86%
12:00 +14°C° 0 mm 3 m/S 743 mmHg 86%
13:00 +14°C° 0 mm 3 m/S 743 mmHg 85%
14:00 +14°C° 0.2 mm 3 m/S 743 mmHg 88%
15:00 +13°C° 0.2 mm 3 m/S 743 mmHg 91%
16:00 +13°C° 0.2 mm 3 m/S 743 mmHg 94%
17:00 +13°C° 0.1 mm 3 m/S 743 mmHg 93%
18:00 +13°C° 0.1 mm 4 m/S 743 mmHg 93%
19:00 +13°C° 0.1 mm 4 m/S 743 mmHg 92%
20:00 +13°C° 0 mm 4 m/S 743 mmHg 91%
21:00 +13°C° 0 mm 4 m/S 743 mmHg 91%
22:00 +13°C° 0 mm 4 m/S 743 mmHg 90%
23:00 +13°C° 0 mm 4 m/S 743 mmHg 90%

3 November, Dienstag

Zeit Temperatur Niederschläge Wind Luftdruck Luftfeuchtigkeit
00:00 +13°C° 0 mm 4 m/S 743 mmHg 90%
01:00 +13°C° 0 mm 4 m/S 743 mmHg 91%
02:00 +13°C° 0 mm 4 m/S 743 mmHg 91%
03:00 +13°C° 0 mm 4 m/S 743 mmHg 91%
04:00 +13°C° 0 mm 4 m/S 743 mmHg 91%
05:00 +13°C° 0 mm 3 m/S 743 mmHg 91%
06:00 +13°C° 0 mm 3 m/S 744 mmHg 92%
07:00 +13°C° 0 mm 3 m/S 744 mmHg 93%
08:00 +13°C° 0.1 mm 3 m/S 745 mmHg 91%
09:00 +14°C° 0.1 mm 4 m/S 745 mmHg 90%
10:00 +14°C° 0.1 mm 4 m/S 746 mmHg 88%
11:00 +14°C° 0.1 mm 4 m/S 746 mmHg 82%
12:00 +14°C° 0.1 mm 4 m/S 746 mmHg 76%
13:00 +14°C° 0.1 mm 4 m/S 747 mmHg 70%
14:00 +13°C° 0 mm 3 m/S 747 mmHg 70%
15:00 +13°C° 0 mm 3 m/S 747 mmHg 70%
16:00 +13°C° 0 mm 2 m/S 748 mmHg 70%
17:00 +13°C° 0 mm 2 m/S 748 mmHg 70%
18:00 +13°C° 0 mm 2 m/S 749 mmHg 70%
19:00 +12°C° 0 mm 2 m/S 749 mmHg 70%
20:00 +12°C° 0 mm 2 m/S 750 mmHg 70%
21:00 +10°C° 0 mm 2 m/S 750 mmHg 71%
22:00 +10°C° 0 mm 2 m/S 750 mmHg 71%
23:00 +10°C° 0 mm 2 m/S 750 mmHg 72%

4 November, Mittwoch

Zeit Temperatur Niederschläge Wind Luftdruck Luftfeuchtigkeit
00:00 +10°C° 0 mm 2 m/S 750 mmHg 73%
01:00 +10°C° 0 mm 1 m/S 750 mmHg 74%
02:00 +10°C° 0.1 mm 1 m/S 750 mmHg 76%
03:00 +9°C° 0.1 mm 2 m/S 750 mmHg 78%
04:00 +9°C° 0.1 mm 2 m/S 750 mmHg 80%
05:00 +8°C° 0.8 mm 2 m/S 750 mmHg 83%
06:00 +8°C° 0.8 mm 2 m/S 750 mmHg 86%
07:00 +8°C° 0.8 mm 2 m/S 750 mmHg 89%
08:00 +8°C° 1.1 mm 2 m/S 750 mmHg 89%
09:00 +7°C° 1.1 mm 2 m/S 750 mmHg 88%
10:00 +7°C° 1.1 mm 3 m/S 751 mmHg 87%
11:00 +7°C° 0.7 mm 3 m/S 751 mmHg 87%
12:00 +6°C° 0.7 mm 4 m/S 751 mmHg 87%
13:00 +6°C° 0.7 mm 4 m/S 751 mmHg 87%
14:00 +6°C° 0.2 mm 4 m/S 751 mmHg 87%
15:00 +7°C° 0.2 mm 3 m/S 751 mmHg 87%
16:00 +7°C° 0.2 mm 3 m/S 752 mmHg 87%
17:00 +7°C° 0.1 mm 3 m/S 752 mmHg 88%
18:00 +7°C° 0.1 mm 3 m/S 752 mmHg 88%
19:00 +7°C° 0.1 mm 3 m/S 753 mmHg 89%
20:00 +6°C° 0 mm 2 m/S 753 mmHg 90%
21:00 +6°C° 0 mm 2 m/S 754 mmHg 90%
22:00 +6°C° 0 mm 2 m/S 754 mmHg 91%
23:00 +6°C° 0 mm 2 m/S 754 mmHg 91%
Mehr zeigen

Wir brauchen deine Erlaubnis

Meteoprog und unser Service Anbieter werden persönliche Daten aufbewahren, so wie Cookies, Geräte Bezeichnung oder ähnliche Technologien von deinem Gerät und Prozess, so wie Persönliche Daten Inhalte und Werbungen, genauso wie social Media und den Verkehr zu analysieren.

  • Aufbewahrung und/oder Zugang zu deiner Geräte Informationen.

    Cookies, Geräte Bezeichnung oder andere Informationen, können aufbewahrt oder Zugang zu deinem Gerät erhalten, für den Grund, der oben angegeben wird.

  • Personalisierte Werbung und Inhalte, Messungen, Einblick in das Publikum und Produkt Entwicklung.

    Werbungen und Inhalte können personalisiert werden, basierend auf ein Profil. Mehr Daten können besser personalisierte Werbungen und Inhalte hinzufügen. Werbung und Inhalte können gezeigt und gemessen werden. Einblicke über das Publikum, welche die Werbung gesehen haben und den Inhalt, können abgeleitet werden. So wie Daten können genutzt werden, um es zu verbessern oder die Benutzer Erfahrung zu verbessern das System und die Software.

Wenn du “Ich stimme zu” klickst, erlaubst du uns, die Cookies zu benutzen die Geräte Bezeichnung, den Web oder ähnliche Technologien zu benutzen. Deine Settings, können in deinem Gerät bei deinem Browser geändert werden.

Für den bestimmten Zweck, berechtigten Interessen beruhen darauf, mehr als auf den Inhalt. Du kannst mehr darüber in unseren Privaten und Cookie Politik lesen.